Location: Eboldshausen
(51.7766°N, 10.0050°E)
Time: 02:08:54
(UTC+00:00)

Cosmos 407 Rocket - Pass Details

Date: 15 November 2025
Orbit: 740 x 780 km, 74.0° (Epoch: 13 December)

Event Time Altitude Azimuth Distance (km) Brightness Sun altitude
Rises 16:40:34 0° 174° (S) 3,209 6.9 -11.0°
Reaches altitude 10° 16:43:07 10° 165° (SSE) 2,281 6.0 -11.3°
Maximum altitude 16:47:43 33° 103° (ESE) 1,247 4.1 -12.0°
Enters shadow 16:51:44 13° 43° (NE) 2,090 5.3 -12.6°
